Flag for Germany Weather past 2 weeks in Bremerhaven, Bremen, Germany

Now
73 °F

Broken clouds.


Feels Like: 76 °F
Forecast: 58 / 64 °F
Wind: 8 mph from Southeast

Location: Nordholz

Current Time: Jul 7, 2015 at 8:33:53 PM

Latest Report: Jul 7, 2015 at 8:00 PM


Visibility: N/A

Pressure: 29.62 "Hg

Humidity: 65%

Dew point: 61 °F

Location of BremerhavenLocation

Historic Weather in Bremerhaven — Graph

°F

Bremerhaven temperature yesterday

Maximum temperature yesterday: 68 °F (at 11:20 AM)
Minimum temperature yesterday: 55 °F (at 11:20 PM)
Average temperature yesterday: 64 °F

Past Weeks' High & Low Weather Summary

 TemperatureHumidityPressure
High93 °F (Jul 4, 4:20 PM)100% (Jul 5, 3:20 AM)30.27 "Hg (Jul 5, 3:20 AM)
Low48 °F (Jun 23, 3:20 AM)35% (Jul 2, 2:20 PM)29.62 "Hg (Jul 7, 7:20 PM)
Average65 °F74%30.06 "Hg
* Reported Jun 22 7:20 PM — Jul 7 7:20 PM, Bremerhaven, Weather by CustomWeather, © 2015

Note: Actual official high and low records may vary slightly from our data, if they occured in-between our weather recording intervals... More about our weather records

Advertising

Bremerhaven weather history for previous 24 hours

 ConditionsComfort  
Time TempWeatherWind HumidityBarometerVisibility
7:20 PM
Tue, Jul 7
73 °FBroken clouds.7 mph65%29.62 "HgN/A
6:20 PM73 °FPartly sunny.3 mph65%29.68 "HgN/A
5:20 PM73 °FBroken clouds.5 mph61%29.74 "HgN/A
4:20 PM75 °FLight rain. Partly sunny.3 mph54%29.74 "HgN/A
3:20 PM77 °FPartly sunny.5 mph44%29.77 "HgN/A
2:20 PM77 °FPartly sunny.6 mph44%29.80 "HgN/A
1:20 PM77 °FPartly sunny.8 mph44%29.80 "HgN/A
12:20 PM75 °FPartly sunny.7 mph47%29.83 "HgN/A
11:20 AM77 °FScattered clouds.8 mph51%29.86 "HgN/A
10:20 AM73 °FPassing clouds.9 mph53%29.89 "HgN/A
9:20 AM70 °FPassing clouds.8 mph60%29.89 "HgN/A
8:20 AM64 °FPassing clouds.6 mph78%29.92 "HgN/A
7:20 AM61 °FPassing clouds.5 mph83%29.95 "HgN/A
6:20 AM57 °FPassing clouds.6 mph88%29.95 "HgN/A
5:20 AM57 °FPassing clouds.8 mph88%29.98 "HgN/A
4:20 AM57 °FPassing clouds.8 mph82%29.98 "HgN/A
3:20 AM55 °FPassing clouds.6 mph94%30.01 "HgN/A
2:20 AM55 °FPassing clouds.6 mph88%30.04 "HgN/A
1:20 AM54 °FPassing clouds.2 mph88%30.04 "HgN/A
12:20 AM55 °FPassing clouds.3 mph88%30.04 "HgN/A
11:20 PM
Mon, Jul 6
55 °FPassing clouds.5 mph88%30.07 "HgN/A
10:20 PM57 °FPassing clouds.1 mph77%30.07 "HgN/A
9:20 PM61 °FPassing clouds.6 mph72%30.07 "HgN/A
8:20 PM63 °FPassing clouds.12 mph68%30.09 "HgN/A
Weather by CustomWeather, © 2015

See weather overviewHow to use our weather pages